QPF
0.00 0.01 0.01 0.00 0.00 0.00 0.00 0.00 0.00 0.00 0.00 0.00 0.00 0.00 0.00 0.00 0.00 0.00 0.00 0.00 0.00 0.00 0.01 0.01 0.00 0.00 0.00 0.01 0.00 0.00 0.00 0.01 0.00 0.00 0.00 0.00 0.00 0.00 0.00 0.00 0.00 0.01 0.03
0.00 0.01 0.00 0.01 0.01 0.02 0.01 0.00 0.00 0.00 0.00 0.00 0.00 0.00 0.00 0.00 0.00 0.00 0.01 0.00 0.00 0.00 0.00 0.00 0.00 0.00 0.00 0.00 0.01 0.00 0.00 0.01 0.00 0.01 0.01 0.00 0.00 0.00 0.00 0.02 0.02 0.01 0.02
0.00 0.01 0.01 0.00 0.00 0.01 0.00 0.00 0.00 0.00 0.00 0.00 0.00 0.00 0.00 0.00 0.00 0.00 0.01 0.00 0.00 0.00 0.00 0.00 0.00 0.00 0.00 0.01 0.01 0.01 0.01 0.01 0.00 0.01 0.01 0.00 0.00 0.00 0.00 0.00 0.01 0.00 0.01
0.00 0.00 0.01 0.01 0.01 0.00 0.00 0.01 0.00 0.00 0.00 0.00 0.00 0.00 0.00 0.00 0.02 0.00 0.00 0.00 0.00 0.00 0.00 0.00 0.00 0.00 0.01 0.01 0.00 0.01 0.01 0.00 0.00 0.00 0.00 0.01 0.00 0.00 0.00 0.00 0.00 0.00 0.00
0.00 0.01 0.01 0.02 0.01 0.00 0.04 0.04 0.02 0.01 0.00 0.00 0.00 0.00 0.00 0.00 0.02 0.00 0.01 0.04 0.05 0.00 0.00 0.00 0.00 0.00 0.00 0.00 0.01 0.00 0.00 0.00 0.00 0.00 0.00 0.00 0.00 0.00 0.00 0.00 0.00 0.00 0.00
0.00 0.01 0.04 0.04 0.06 0.10 0.09 0.13 0.15 0.13 0.10 0.06 0.01 0.02 0.00 0.00 0.00 0.02 0.03 0.06 0.03 0.00 0.00 0.00 0.00 0.00 0.00 0.00 0.00 0.00 0.00 0.00 0.00 0.00 0.00 0.00 0.00 0.00 0.00 0.00 0.00 0.00 0.00
0.00 0.01 0.04 0.04 0.07 0.13 0.13 0.08 0.03 0.05 0.06 0.09 0.06 0.04 0.03 0.01 0.03 0.03 0.05 0.03 0.00 0.00 0.00 0.00 0.00 0.00 0.00 0.00 0.00 0.00 0.00 0.00 0.00 0.00 0.00 0.00 0.00 0.00 0.00 0.00 0.00 0.00 0.00
0.01 0.01 0.00 0.00 0.00 0.01 0.00 0.01 0.00 0.00 0.00 0.00 0.01 0.01 0.01 0.02 0.02 0.02 0.02 0.02 0.00 0.00 0.01 0.02 0.04 0.01 0.00 0.00 0.00 0.00 0.00 0.00 0.00 0.00 0.00 0.00 0.00 0.01 0.00 0.00 0.00 0.00 0.00
0.01 0.01 0.03 0.04 0.02 0.00 0.00 0.00 0.00 0.00 0.00 0.00 0.00 0.00 0.00 0.00 0.02 0.03 0.02 0.02 0.02 0.01 0.01 0.03 0.04 0.03 0.00 0.00 0.00 0.00 0.00 0.00 0.00 0.00 0.00 0.00 0.00 0.00 0.00 0.00 0.00 0.00 0.00
0.01 0.01 0.00 0.00 0.01 0.03 0.03 0.03 0.01 0.00 0.00 0.00 0.00 0.00 0.00 0.00 0.00 0.02 0.05 0.05 0.06 0.04 0.03 0.03 0.04 0.06 0.06 0.03 0.00 0.00 0.00 0.00 0.00 0.00 0.00 0.00 0.00 0.00 0.00 0.00 0.01 0.00 0.00
0.00 0.00 0.00 0.00 0.00 0.00 0.00 0.01 0.02 0.01 0.01 0.01 0.01 0.00 0.00 0.00 0.01 0.01 0.02 0.04 0.05 0.04 0.02 0.02 0.03 0.07 0.12 0.14 0.10 0.06 0.05 0.05 0.01 0.00 0.00 0.00 0.00 0.00 0.00 0.00 0.00 0.01 0.01
0.00 0.00 0.00 0.00 0.00 0.00 0.00 0.00 0.00 0.01 0.00 0.00 0.00 0.00 0.00 0.00 0.00 0.01 0.02 0.04 0.06 0.05 0.06 0.07 0.06 0.04 0.05 0.06 0.09 0.11 0.13 0.14 0.04 0.02 0.01 0.00 0.02 0.03 0.02 0.00 0.00 0.00 0.02
0.00 0.00 0.00 0.00 0.00 0.00 0.00 0.00 0.00 0.00 0.00 0.01 0.01 0.00 0.01 0.02 0.01 0.06 0.06 0.05 0.03 0.02 0.02 0.05 0.11 0.16 0.16 0.14 0.13 0.12 0.13 0.13 0.10 0.06 0.04 0.02 0.01 0.03 0.02 0.00 0.01 0.01 0.01
0.00 0.00 0.00 0.00 0.00 0.00 0.00 0.00 0.00 0.00 0.00 0.00 0.00 0.00 0.00 0.00 0.00 0.05 0.12 0.06 0.02 0.01 0.01 0.01 0.03 0.04 0.04 0.07 0.12 0.15 0.12 0.09 0.07 0.03 0.02 0.01 0.01 0.01 0.00 0.00 0.00 0.00 0.00
0.00 0.00 0.00 0.00 0.00 0.00 0.00 0.00 0.00 0.00 0.00 0.00 0.00 0.00 0.00 0.00 0.00 0.00 0.00 0.01 0.01 0.00 0.00 0.00 0.01 0.01 0.02 0.03 0.04 0.04 0.05 0.06 0.06 0.03 0.02 0.02 0.01 0.01 0.00 0.01 0.01 0.01 0.00
0.00 0.00 0.00 0.00 0.00 0.00 0.00 0.00 0.00 0.00 0.00 0.00 0.00 0.00 0.00 0.00 0.00 0.00 0.00 0.00 0.00 0.00 0.00 0.00 0.00 0.00 0.00 0.00 0.00 0.02 0.02 0.02 0.01 0.01 0.00 0.00 0.00 0.00 0.01 0.01 0.02 0.02 0.01
0.00 0.00 0.00 0.00 0.00 0.00 0.00 0.00 0.00 0.00 0.00 0.00 0.00 0.00 0.00 0.00 0.00 0.00 0.00 0.00 0.00 0.00 0.00 0.00 0.00 0.00 0.00 0.00 0.00 0.00 0.00 0.00 0.00 0.01 0.01 0.00 0.00 0.00 0.00 0.00 0.01 0.01 0.00
0.00 0.00 0.00 0.00 0.00 0.00 0.00 0.00 0.00 0.00 0.00 0.00 0.00 0.00 0.00 0.00 0.00 0.00 0.00 0.00 0.00 0.00 0.00 0.00 0.00 0.00 0.00 0.00 0.00 0.00 0.00 0.00 0.00 0.00 0.00 0.01 0.01 0.02 0.02 0.02 0.02 0.01 0.01
0.00 0.00 0.00 0.00 0.00 0.00 0.00 0.00 0.00 0.00 0.00 0.00 0.00 0.00 0.00 0.00 0.00 0.00 0.00 0.00 0.00 0.00 0.00 0.00 0.00 0.00 0.00 0.00 0.00 0.00 0.00 0.00 0.00 0.00 0.00 0.01 0.01 0.01 0.01 0.03 0.03 0.03 0.02
0.00 0.00 0.00 0.00 0.00 0.00 0.00 0.00 0.00 0.00 0.00 0.00 0.00 0.00 0.00 0.00 0.00 0.00 0.00 0.00 0.00 0.00 0.00 0.00 0.00 0.00 0.00 0.00 0.00 0.00 0.00 0.00 0.00 0.00 0.00 0.00 0.00 0.00 0.00 0.00 0.00 0.00 0.00
0.00 0.00 0.00 0.00 0.00 0.00 0.00 0.00 0.00 0.00 0.00 0.00 0.00 0.00 0.00 0.00 0.00 0.00 0.00 0.00 0.00 0.00 0.00 0.00 0.00 0.00 0.00 0.00 0.00 0.00 0.00 0.00 0.00 0.00 0.00 0.00 0.00 0.00 0.00 0.00 0.00 0.00 0.00
0.00 0.00 0.00 0.00 0.00 0.00 0.00 0.00 0.00 0.00 0.00 0.00 0.00 0.00 0.00 0.00 0.00 0.00 0.00 0.00 0.00 0.00 0.00 0.00 0.00 0.00 0.00 0.00 0.00 0.00 0.00 0.00 0.00 0.00 0.00 0.00 0.00 0.00 0.00 0.00 0.00 0.00 0.00
0.00 0.00 0.00 0.00 0.00 0.00 0.00 0.00 0.00 0.00 0.00 0.00 0.00 0.00 0.00 0.00 0.00 0.00 0.00 0.00 0.00 0.00 0.00 0.00 0.00 0.00 0.00 0.00 0.00 0.00 0.00 0.00 0.00 0.00 0.00 0.00 0.00 0.00 0.00 0.00 0.01 0.00 0.00
0.00 0.00 0.00 0.00 0.00 0.00 0.00 0.00 0.00 0.00 0.00 0.00 0.00 0.00 0.00 0.00 0.00 0.00 0.00 0.00 0.00 0.00 0.00 0.00 0.00 0.00 0.00 0.00 0.00 0.00 0.00 0.00 0.00 0.00 0.00 0.00 0.00 0.00 0.00 0.00 0.00 0.00 0.00
0.00 0.00 0.00 0.00 0.00 0.00 0.00 0.00 0.00 0.00 0.00 0.00 0.00 0.00 0.00 0.00 0.00 0.00 0.00 0.00 0.00 0.00 0.00 0.00 0.00 0.00 0.00 0.00 0.00 0.00 0.00 0.00 0.00 0.00 0.00 0.00 0.00 0.01 0.01 0.01 0.01 0.00 0.01
0.00 0.00 0.00 0.00 0.00 0.00 0.00 0.00 0.00 0.00 0.00 0.00 0.00 0.00 0.00 0.00 0.00 0.00 0.00 0.00 0.00 0.00 0.00 0.00 0.00 0.00 0.00 0.00 0.00 0.00 0.00 0.00 0.00 0.00 0.00 0.00 0.00 0.01 0.02 0.01 0.01 0.00 0.00
MSLP
1005.05 1004.92 1004.77 1004.69 1004.95 1005.41 1005.52 1005.90 1006.38 1006.89 1007.47 1007.84 1008.47 1008.72 1008.53 1009.17 1009.81 1010.34 1010.80 1011.52 1011.94 1012.19 1012.46 1012.72 1012.87 1013.07 1013.03 1013.31 1013.96 1014.29 1014.38 1014.51 1014.03 1013.18 1013.57 1013.77 1013.88 1013.77 1013.72 1013.65 1013.73 1013.87 1014.23
1005.44 1005.13 1004.98 1004.67 1004.55 1004.65 1004.84 1005.19 1005.91 1006.28 1006.74 1007.05 1007.42 1008.15 1008.54 1008.66 1008.89 1009.49 1009.87 1010.15 1010.77 1010.89 1011.15 1011.72 1012.11 1012.36 1012.53 1012.84 1013.26 1013.57 1013.89 1014.23 1014.19 1013.72 1013.30 1013.50 1013.62 1013.57 1013.62 1013.75 1013.96 1014.03 1014.05
1005.23 1005.04 1004.71 1004.38 1004.28 1003.97 1004.19 1004.68 1004.89 1005.39 1005.83 1006.16 1006.61 1006.97 1007.00 1007.44 1007.45 1007.62 1008.44 1009.23 1009.74 1010.11 1010.51 1010.68 1011.03 1011.59 1011.98 1012.34 1012.60 1012.87 1013.35 1013.79 1013.99 1013.64 1013.14 1013.27 1013.36 1013.86 1013.84 1013.91 1013.82 1013.72 1013.73
1005.19 1004.84 1004.24 1003.87 1003.61 1003.42 1003.36 1003.89 1004.25 1004.53 1004.99 1005.33 1005.70 1006.03 1006.28 1006.48 1006.69 1006.66 1007.19 1008.12 1009.00 1009.53 1009.88 1010.30 1010.44 1010.70 1011.05 1011.62 1011.95 1012.38 1012.85 1013.26 1013.39 1013.36 1013.05 1013.15 1013.16 1013.44 1013.95 1013.85 1013.76 1013.85 1013.94
1004.99 1004.79 1004.35 1003.85 1003.00 1002.70 1002.85 1003.34 1003.67 1003.96 1004.35 1004.71 1005.25 1005.39 1005.69 1005.96 1006.11 1006.21 1006.10 1006.71 1007.39 1008.39 1009.14 1009.56 1009.75 1010.15 1010.43 1010.66 1010.96 1011.66 1012.24 1012.65 1012.90 1013.13 1012.86 1012.94 1013.11 1013.28 1013.49 1013.32 1013.48 1013.30 1013.31
1004.57 1004.53 1004.20 1003.82 1003.66 1003.39 1003.40 1003.69 1004.02 1004.45 1004.67 1004.84 1004.95 1005.15 1005.52 1005.69 1005.67 1005.77 1005.80 1005.91 1006.93 1007.19 1007.92 1008.57 1009.20 1009.57 1010.12 1010.38 1010.73 1010.86 1011.39 1011.96 1012.23 1012.71 1012.64 1012.36 1012.25 1012.59 1012.83 1012.66 1012.90 1013.23 1013.13
1004.59 1004.62 1004.32 1004.16 1003.93 1003.92 1004.12 1004.32 1004.54 1004.80 1005.10 1005.30 1005.44 1005.67 1005.67 1005.77 1005.66 1005.73 1005.63 1005.08 1005.30 1006.18 1006.83 1007.51 1008.33 1008.66 1009.25 1009.50 1010.24 1010.68 1010.90 1011.31 1011.47 1011.65 1011.87 1011.78 1011.46 1011.61 1011.93 1012.24 1012.49 1012.56 1012.47
1005.14 1004.90 1004.49 1004.33 1004.35 1004.53 1004.43 1004.51 1004.79 1004.96 1005.25 1005.49 1005.70 1005.82 1005.73 1005.77 1005.83 1006.07 1006.22 1005.61 1004.69 1004.67 1005.63 1006.57 1007.39 1007.93 1008.64 1008.61 1009.33 1009.77 1010.00 1010.42 1010.99 1010.93 1011.08 1010.97 1011.24 1011.18 1011.62 1011.63 1011.73 1012.00 1012.20
1005.40 1005.38 1004.91 1004.64 1004.54 1004.45 1004.48 1004.76 1004.85 1004.96 1005.19 1005.23 1005.13 1005.21 1005.33 1005.40 1005.49 1005.56 1005.85 1005.99 1006.01 1005.56 1004.92 1005.79 1006.81 1007.59 1007.95 1008.40 1008.83 1008.97 1009.51 1009.47 1009.79 1010.27 1010.39 1010.72 1010.97 1011.27 1011.21 1011.35 1011.23 1011.47 1011.23
1006.22 1005.82 1005.35 1005.10 1004.78 1004.58 1004.78 1004.85 1004.98 1005.01 1005.31 1005.29 1005.41 1005.28 1005.08 1005.15 1005.54 1005.23 1005.34 1005.76 1005.91 1006.29 1006.57 1006.13 1006.31 1007.32 1007.83 1008.48 1008.41 1008.47 1008.70 1008.88 1009.00 1009.42 1010.28 1010.64 1010.62 1010.74 1011.41 1011.12 1010.46 1010.24 1010.14
1006.25 1005.79 1005.35 1005.16 1005.08 1004.98 1004.92 1005.18 1005.25 1005.29 1005.24 1005.28 1005.29 1005.44 1005.25 1005.22 1004.84 1005.07 1005.07 1005.08 1005.57 1006.00 1006.31 1006.50 1005.94 1007.12 1007.72 1008.11 1008.57 1008.23 1007.93 1008.34 1008.76 1008.81 1008.87 1009.17 1009.49 1009.76 1010.01 1010.24 1010.03 1009.87 1009.55
1005.96 1005.58 1005.55 1005.44 1005.23 1005.10 1004.99 1005.06 1005.18 1005.30 1005.34 1005.40 1005.48 1005.45 1005.29 1005.55 1005.30 1005.22 1005.23 1005.35 1004.83 1005.65 1006.00 1006.11 1006.55 1007.27 1008.18 1008.61 1008.74 1008.29 1008.26 1008.95 1008.10 1007.93 1007.89 1008.05 1008.57 1008.78 1009.03 1009.16 1009.25 1009.30 1009.19
1005.99 1005.96 1005.96 1005.83 1005.53 1005.19 1005.00 1004.57 1005.05 1005.38 1005.60 1005.43 1004.99 1004.64 1005.26 1005.53 1005.33 1005.52 1005.64 1005.52 1005.27 1005.36 1005.88 1006.21 1006.43 1006.84 1007.44 1008.15 1008.63 1008.75 1008.60 1009.15 1008.26 1008.04 1007.90 1007.87 1007.77 1007.97 1008.54 1008.85 1008.82 1008.82 1009.05
1006.02 1005.82 1005.76 1005.70 1005.59 1005.43 1005.32 1005.50 1005.38 1005.25 1005.29 1005.38 1005.36 1005.54 1006.16 1006.31 1006.24 1005.94 1006.08 1005.82 1005.84 1006.10 1006.56 1006.86 1007.13 1007.43 1007.92 1008.27 1008.82 1009.09 1008.46 1007.91 1008.28 1008.18 1008.44 1008.33 1008.13 1008.42 1008.37 1008.16 1008.36 1008.52 1008.83
1006.12 1006.17 1006.05 1005.76 1005.55 1005.58 1005.96 1006.47 1006.21 1006.48 1006.26 1006.02 1006.26 1005.88 1005.88 1006.32 1007.03 1007.06 1006.55 1006.54 1006.70 1006.99 1006.97 1006.72 1007.07 1007.62 1007.92 1008.24 1008.19 1007.81 1007.48 1007.25 1008.21 1008.68 1008.60 1008.30 1008.16 1008.13 1008.23 1008.01 1007.99 1008.15 1008.16
1006.26 1006.03 1005.95 1005.61 1005.46 1005.56 1005.77 1006.16 1007.06 1007.19 1007.33 1007.11 1006.94 1006.27 1006.75 1006.92 1007.22 1007.21 1007.51 1007.64 1007.34 1007.14 1006.42 1006.38 1006.71 1007.03 1007.20 1007.49 1007.73 1007.57 1007.52 1007.71 1008.03 1008.19 1008.35 1008.09 1007.95 1007.96 1008.13 1007.93 1007.80 1007.50 1007.16
1006.30 1006.05 1005.58 1005.63 1005.35 1005.27 1005.50 1005.70 1006.26 1007.37 1007.32 1007.32 1007.32 1007.37 1007.29 1007.37 1007.75 1007.73 1007.82 1007.68 1007.42 1007.22 1006.83 1006.84 1006.85 1007.42 1007.52 1007.85 1007.70 1007.58 1007.75 1007.74 1007.87 1007.81 1007.53 1007.62 1007.77 1007.71 1007.74 1007.68 1007.27 1006.96 1006.57
1006.27 1006.13 1005.64 1005.32 1005.11 1005.15 1005.44 1005.60 1005.80 1005.85 1006.10 1006.63 1007.58 1007.81 1008.06 1007.99 1007.98 1007.98 1007.82 1007.29 1006.95 1006.95 1007.25 1007.60 1007.84 1007.86 1007.83 1007.82 1007.59 1007.70 1007.66 1007.64 1007.59 1007.55 1007.44 1007.21 1007.10 1007.33 1007.38 1007.30 1007.19 1006.79 1006.56
1006.53 1006.12 1005.92 1005.72 1005.94 1006.07 1005.67 1005.37 1005.25 1005.40 1005.76 1005.87 1006.95 1007.86 1008.17 1008.31 1008.30 1008.10 1007.68 1007.15 1007.12 1007.16 1007.46 1007.60 1007.74 1007.69 1007.98 1007.79 1007.36 1007.57 1007.66 1007.58 1007.80 1007.58 1007.47 1007.31 1007.18 1007.02 1006.86 1006.97 1006.98 1006.82 1006.52
1006.50 1006.35 1006.16 1005.87 1005.62 1005.47 1005.20 1005.10 1005.06 1005.22 1005.27 1005.43 1005.83 1006.51 1007.63 1008.08 1007.43 1007.23 1007.26 1007.04 1007.20 1007.24 1007.33 1007.30 1007.73 1007.75 1007.79 1007.69 1007.73 1007.74 1007.72 1007.50 1007.60 1007.45 1007.53 1007.36 1007.13 1007.02 1007.01 1006.80 1006.70 1006.80 1006.52
1006.14 1006.04 1006.07 1005.78 1005.63 1005.54 1005.27 1005.05 1005.05 1005.08 1005.27 1005.55 1006.01 1006.83 1006.91 1007.34 1006.60 1006.75 1006.74 1006.85 1007.06 1007.43 1007.19 1007.22 1007.75 1008.27 1008.12 1007.89 1007.67 1008.09 1007.88 1007.75 1007.70 1007.58 1007.60 1007.43 1007.28 1007.14 1007.00 1006.91 1006.75 1006.73 1006.64
1005.86 1005.74 1005.60 1005.35 1005.41 1005.40 1005.31 1005.39 1005.41 1005.34 1005.50 1005.50 1005.88 1006.99 1007.43 1007.25 1006.60 1006.55 1006.60 1006.54 1006.77 1006.98 1007.07 1007.29 1007.38 1007.39 1007.55 1007.39 1007.36 1007.38 1007.61 1007.79 1007.99 1007.63 1007.41 1007.34 1007.30 1007.08 1007.01 1006.93 1006.94 1006.85 1006.84
1005.71 1005.61 1005.57 1005.47 1005.36 1005.51 1005.33 1005.29 1005.26 1005.37 1005.45 1005.56 1005.79 1006.11 1006.51 1006.31 1006.10 1005.98 1005.98 1006.31 1006.72 1006.97 1007.17 1007.19 1006.97 1006.77 1007.28 1007.33 1007.11 1007.26 1007.19 1007.59 1007.60 1007.34 1007.11 1006.87 1006.75 1006.90 1006.62 1006.63 1006.59 1006.88 1007.11
1005.49 1005.42 1005.25 1005.19 1005.30 1005.24 1005.24 1005.31 1005.51 1005.74 1005.64 1005.59 1005.61 1005.81 1005.74 1005.75 1005.56 1005.71 1006.01 1006.13 1006.31 1006.54 1006.67 1006.80 1006.93 1006.88 1006.89 1006.76 1006.79 1007.11 1007.15 1007.21 1007.27 1007.07 1007.14 1006.69 1006.40 1006.45 1006.24 1006.36 1006.39 1006.76 1007.14
1005.12 1005.14 1005.13 1005.11 1005.02 1005.06 1005.04 1005.19 1005.24 1005.20 1005.14 1005.22 1005.35 1005.42 1005.29 1005.26 1005.11 1005.12 1005.41 1005.64 1005.80 1005.96 1006.21 1006.50 1006.52 1006.43 1006.38 1006.50 1006.46 1006.68 1007.32 1007.77 1007.70 1007.75 1006.88 1006.70 1006.47 1006.45 1006.33 1006.31 1006.35 1006.45 1006.68
1004.72 1004.87 1004.90 1004.89 1004.81 1004.82 1004.75 1004.63 1004.64 1004.68 1004.70 1004.82 1004.93 1004.97 1005.06 1005.16 1005.10 1005.04 1004.95 1005.08 1005.41 1005.54 1005.62 1005.76 1005.99 1006.17 1006.15 1006.15 1006.28 1006.66 1007.27 1007.44 1007.29 1007.59 1007.10 1006.63 1006.33 1005.99 1006.15 1006.17 1006.45 1006.58 1006.63
Thickness
5756 5764 5774 5779 5784 5786 5792 5793 5793 5791 5788 5787 5784 5783 5788 5785 5781 5777 5772 5765 5759 5755 5753 5751 5751 5753 5754 5754 5749 5745 5744 5742 5741 5751 5751 5752 5747 5746 5745 5742 5740 5739 5737
5741 5748 5756 5768 5776 5781 5787 5790 5788 5787 5787 5787 5785 5782 5779 5780 5782 5779 5775 5774 5766 5765 5763 5757 5754 5755 5754 5753 5749 5746 5743 5741 5739 5738 5747 5745 5742 5744 5742 5739 5734 5732 5732
5735 5738 5748 5758 5767 5776 5781 5783 5786 5786 5787 5786 5785 5784 5789 5787 5790 5791 5786 5779 5773 5768 5765 5763 5760 5756 5753 5752 5751 5748 5743 5739 5737 5739 5743 5742 5741 5737 5735 5734 5732 5730 5729
5724 5729 5740 5751 5761 5769 5777 5778 5780 5785 5784 5785 5786 5787 5789 5789 5791 5794 5791 5783 5775 5769 5766 5761 5762 5760 5756 5752 5751 5748 5744 5739 5738 5736 5739 5737 5737 5736 5730 5728 5726 5726 5724
5717 5722 5728 5740 5758 5765 5769 5770 5774 5777 5779 5781 5780 5783 5785 5786 5788 5790 5793 5789 5783 5774 5767 5764 5763 5761 5759 5757 5753 5750 5746 5739 5736 5732 5732 5732 5729 5728 5725 5728 5724 5727 5726
5713 5716 5724 5730 5737 5746 5752 5755 5757 5758 5762 5767 5771 5774 5775 5779 5784 5784 5787 5788 5783 5777 5770 5766 5763 5760 5755 5753 5749 5749 5748 5740 5734 5729 5726 5727 5731 5728 5727 5727 5725 5719 5715
5705 5707 5713 5718 5725 5730 5735 5739 5743 5747 5750 5752 5756 5758 5761 5767 5771 5771 5775 5785 5784 5779 5773 5767 5760 5760 5755 5753 5747 5742 5740 5739 5739 5736 5730 5727 5731 5734 5730 5725 5722 5720 5718
5692 5696 5703 5709 5713 5716 5723 5728 5732 5735 5738 5739 5741 5744 5750 5755 5756 5757 5760 5769 5777 5779 5773 5767 5759 5756 5750 5750 5744 5742 5741 5737 5734 5736 5734 5734 5730 5732 5727 5727 5725 5722 5720
5683 5685 5693 5698 5701 5705 5711 5713 5717 5720 5723 5728 5733 5738 5742 5747 5748 5750 5751 5753 5750 5754 5761 5759 5754 5749 5746 5742 5740 5738 5735 5736 5734 5732 5731 5729 5726 5723 5723 5722 5721 5717 5717
5670 5677 5685 5690 5692 5694 5696 5700 5703 5706 5707 5714 5718 5725 5731 5734 5734 5740 5742 5740 5737 5733 5732 5741 5742 5742 5736 5730 5736 5733 5728 5729 5730 5731 5725 5723 5724 5721 5716 5718 5721 5718 5721
5669 5677 5683 5687 5686 5687 5689 5688 5688 5691 5698 5704 5709 5711 5719 5721 5729 5729 5730 5731 5729 5727 5724 5727 5737 5729 5726 5722 5720 5725 5727 5724 5721 5723 5724 5724 5723 5722 5719 5717 5719 5717 5716
5669 5675 5677 5680 5685 5687 5686 5685 5684 5685 5689 5693 5699 5703 5706 5708 5712 5716 5718 5719 5725 5721 5720 5720 5722 5717 5709 5706 5707 5713 5713 5706 5714 5717 5721 5720 5713 5713 5714 5715 5714 5714 5714
5666 5666 5667 5670 5677 5682 5683 5688 5682 5680 5680 5686 5696 5704 5701 5701 5706 5705 5706 5709 5715 5715 5713 5712 5711 5708 5701 5695 5693 5695 5699 5696 5705 5704 5707 5710 5712 5713 5709 5706 5707 5706 5704
5662 5665 5667 5670 5672 5676 5680 5679 5680 5683 5685 5685 5688 5688 5687 5689 5694 5698 5696 5700 5702 5702 5698 5697 5697 5694 5689 5687 5681 5680 5688 5694 5693 5694 5693 5696 5700 5697 5697 5699 5696 5695 5693
5656 5657 5660 5665 5668 5669 5666 5664 5670 5668 5675 5681 5678 5683 5687 5686 5681 5678 5684 5687 5686 5684 5687 5691 5691 5685 5684 5679 5678 5682 5686 5688 5682 5679 5680 5682 5684 5685 5683 5686 5685 5683 5684
5648 5654 5656 5661 5663 5663 5662 5662 5652 5653 5653 5657 5661 5671 5670 5669 5666 5667 5665 5664 5668 5672 5685 5685 5682 5682 5680 5678 5675 5675 5675 5673 5671 5672 5671 5673 5673 5672 5670 5672 5673 5677 5679
5644 5649 5656 5656 5660 5661 5660 5660 5660 5651 5648 5650 5653 5654 5657 5657 5654 5656 5656 5658 5660 5665 5672 5673 5672 5668 5666 5664 5667 5668 5667 5668 5666 5666 5666 5661 5661 5662 5660 5661 5665 5669 5671
5641 5638 5649 5654 5657 5658 5656 5657 5657 5659 5661 5658 5645 5646 5644 5647 5648 5649 5652 5656 5664 5663 5660 5656 5654 5655 5656 5657 5659 5657 5657 5656 5657 5657 5655 5656 5655 5651 5649 5650 5652 5655 5658
5633 5638 5641 5644 5643 5641 5647 5651 5656 5655 5654 5656 5647 5639 5637 5636 5638 5642 5647 5654 5653 5652 5650 5649 5649 5649 5646 5649 5653 5650 5648 5649 5646 5646 5646 5645 5645 5645 5644 5642 5641 5641 5645
5626 5625 5629 5636 5639 5641 5644 5647 5648 5648 5650 5653 5652 5649 5639 5636 5647 5647 5645 5646 5645 5645 5645 5646 5641 5641 5641 5640 5639 5639 5639 5640 5639 5637 5636 5635 5635 5634 5633 5634 5634 5632 5635
5625 5626 5623 5631 5632 5634 5639 5641 5643 5644 5643 5643 5644 5641 5637 5639 5645 5643 5642 5641 5639 5635 5639 5639 5635 5630 5632 5633 5633 5628 5627 5627 5627 5626 5624 5622 5622 5621 5621 5620 5621 5621 5621
5623 5625 5628 5630 5630 5630 5633 5634 5635 5637 5636 5638 5640 5635 5625 5635 5640 5638 5637 5637 5636 5634 5634 5631 5630 5629 5627 5627 5626 5624 5620 5616 5612 5612 5612 5611 5609 5609 5608 5607 5605 5605 5605
5620 5622 5624 5625 5626 5623 5628 5630 5631 5631 5631 5633 5634 5635 5635 5635 5636 5636 5636 5633 5629 5627 5625 5625 5626 5627 5621 5618 5617 5615 5612 5606 5603 5603 5602 5602 5601 5599 5600 5599 5597 5595 5591
5618 5619 5621 5622 5622 5623 5624 5623 5622 5618 5622 5625 5627 5627 5630 5630 5631 5629 5627 5627 5626 5623 5622 5621 5618 5618 5616 5614 5611 5606 5603 5600 5597 5596 5593 5596 5596 5593 5593 5591 5589 5584 5580
5617 5617 5617 5618 5619 5619 5619 5619 5618 5620 5622 5622 5622 5623 5625 5626 5628 5628 5626 5624 5622 5620 5618 5614 5613 5612 5610 5607 5605 5601 5594 5589 5586 5585 5587 5587 5587 5584 5583 5581 5580 5578 5576
5613 5612 5612 5613 5615 5615 5616 5617 5618 5618 5618 5618 5618 5619 5618 5617 5618 5619 5620 5618 5615 5613 5613 5611 5608 5604 5602 5600 5597 5592 5586 5584 5582 5578 5578 5579 5579 5580 5576 5573 5569 5568 5567